Location: Diebersbach
(48.5163°N, 8.0558°E)
Time: 19:44:03
(UTC+00:00)

Cosmos 1825 - Pass Details

Date: 01 November 2021
Orbit: 501 x 504 km, 82.5° (Epoch: 01 December)

Event Time Altitude Azimuth Distance (km) Brightness Sun altitude
Rises 05:34:23 0° 143° (SE) 2,586 6.7 -7.1°
Reaches altitude 10° 05:37:18 10° 118° (ESE) 1,709 6.4 -6.6°
Maximum altitude 05:39:18 14° 85° (E) 1,474 5.8 -6.3°
Drops below altitude 10° 05:41:18 10° 53° (NE) 1,717 5.4 -6.0°
Sets 05:44:14 0° 28° (NNE) 2,608 5.9 -5.5°
